This demonstration page uses our WeatherBlox Daily Observations layout. Learn more.

Left ArrowRight Arrow

Hourly Observations for January 9, 2016

Temp ( °F °C ) Dew Point ( °F °C ) Humidity (%) Winds ( mph kmh ) Pressure ( in mb ) Visibility ( mi km ) Precip ( " mm )
12:59 am 00:59 Mostly Cloudy 48 8.9 44 6.7 86 86 NE 8 13 30.08 1019 8 13 0.00 0.00
1:59 am 01:59 Mostly Cloudy 48 8.9 44 6.7 86 86 NNE 6 9 30.08 1019 8 13 0.00 0.00
2:59 am 02:59 Mostly Cloudy 48 8.9 44 6.7 86 86 NNE 9 15 30.08 1019 8 13 0.00 0.00
3:59 am 03:59 Cloudy 48 8.9 45 7.2 89 89 NNE 8 13 30.07 1018 8 13 0.00 0.00
4:34 am 04:34 Cloudy 48 8.9 45 7.2 89 89 N 6 9 30.09 1019 8 13 0.00 0.00
4:59 am 04:59 Cloudy 48 8.9 45 7.2 89 89 NNE 8 13 30.08 1019 8 13 0.00 0.00
5:59 am 05:59 Cloudy 48 8.9 45 7.2 89 89 NNE 5 7 30.09 1019 8 13 0.00 0.03
6:03 am 06:03 Cloudy 48 8.9 45 7.2 89 89 NNE 6 9 30.09 1019 8 13 0.00 0.00
6:22 am 06:22 Cloudy with Light Rain 48 8.9 45 7.2 89 89 NNE 5 7 30.09 1019 8 13 0.00 0.03
6:59 am 06:59 Cloudy 48 8.9 45 7.2 89 89 N 8 13 30.10 1019 8 13 0.01 0.25
7:59 am 07:59 Cloudy 48 8.9 46 7.8 93 93 NNE 7 11 30.10 1019 8 13 0.00 0.00
8:54 am 08:54 Cloudy 48 9 46 8 94 94 NNE 6 9 30.12 1020 8 13 0.00 0.00
8:59 am 08:59 Cloudy 49 9.4 46 7.8 90 90 NNE 7 11 30.12 1020 8 13 0.00 0.00
9:54 am 09:54 Cloudy 50 10 46 8 88 88 NNE 8 13 30.12 1020 7 11 0.00 0.00
9:59 am 09:59 Mostly Cloudy 50 10 47 8.3 89 89 NNE 6 9 30.12 1020 7 11 0.00 0.00
10:59 am 10:59 Mostly Cloudy 53 11.7 47 8.3 80 80 NNE 8 13 30.11 1020 7 11 0.00 0.00
11:59 am 11:59 Mostly Cloudy 55 12.8 48 8.9 77 77 NE 9 15 30.08 1019 7 11 0.00 0.00
12:06 pm 12:06 Mostly Cloudy 55 12.8 48 8.9 77 77 NE 9 15 30.09 1019 7 11 0.00 0.00
12:59 pm 12:59 Mostly Cloudy 54 12.2 47 8.3 77 77 NE 10 17 30.04 1017 7 11 0.00 0.00
1:59 pm 13:59 Mostly Cloudy 54 12.2 47 8.3 77 77 NNE 7 11 30.05 1018 7 11 0.00 0.00
2:59 pm 14:59 Cloudy 53 11.7 47 8.3 80 80 NE 5 7 30.04 1017 7 11 0.00 0.00
3:59 pm 15:59 Cloudy 53 11.7 48 8.9 83 83 ENE 5 7 30.03 1017 7 11 0.00 0.00
4:59 pm 16:59 Cloudy 52 11.1 48 8.9 86 86 ENE 8 13 30.02 1017 7 11 0.00 0.00
5:59 pm 17:59 Cloudy 52 11.1 49 9.4 89 89 ENE 9 15 30.01 1016 7 11 0.00 0.00
6:08 pm 18:08 Cloudy 52 11.1 49 9.4 89 89 ENE 8 13 30.00 1016 7 11 0.00 0.00
6:44 pm 18:44 Cloudy with Light Rain 52 11.1 49 9.4 89 89 NE 8 13 30.00 1016 7 11 0.00 0.03
6:59 pm 18:59 Cloudy with Light Rain 52 11.1 50 10 93 93 ENE 7 11 29.98 1015 5 8 0.00 0.03
7:59 pm 19:59 Cloudy with Mist and Fog 52 11.1 50 10 93 93 ENE 9 15 29.96 1015 5 8 0.00 0.03
8:06 pm 20:06 Cloudy with Mist and Fog 52 11.1 50 10 93 93 E 8 13 29.97 1015 3 4 0.00 0.00
8:59 pm 20:59 Cloudy with Mist and Fog 53 11.7 51 10.6 93 93 E 12 19 29.93 1014 4 6 0.00 0.00
9:03 pm 21:03 Cloudy with Mist and Fog 53 11.7 51 10.6 93 93 E 10 17 29.94 1014 2 3 0.00 0.00
9:24 pm 21:24 Cloudy 54 12.2 51 10.6 90 90 E 10 17 29.91 1013 7 11 0.00 0.00
9:59 pm 21:59 Cloudy 54 12.2 52 11.1 93 93 ESE 12 19 29.90 1013 7 11 0.00 0.00
10:12 pm 22:12 Cloudy 55 12.8 52 11.1 90 90 E 8 13 29.91 1013 7 11 0.00 0.00
10:59 pm 22:59 Cloudy with Light Rain 58 14.4 54 12.2 87 87 ESE 12 19 29.84 1011 6 10 0.01 0.25
11:59 pm 23:59 Cloudy with Light Rain 59 15 55 12.8 87 87 SE 13 20 29.81 1010 6 10 0.02 0.51

Powered by AerisWeather